SEEDS II (CO-66)

Last updated on Thu Oct 30 2025 00:03:10 GMT+0000 (Coordinated Universal Time)

1 32791U 08021J 25302.52395181 .00021473 00000+0 91047-3 0 9999 2 32791 97.7425 286.2272 0005738 60.0111 300.1694 15.23135176952068
UTC large
Height (km)
Speed (km/s)
/
Latitude / Longitude
Inclination (degrees)
Orbital Period (minutes)
Azimuth
Elevation
Range (km)
Doppler Factor

Next 0 passes for location: London (51.5072 / 0.1276)

Sorry there are no passes over London.